• în Republica Moldova
  • Lista ţărilor
  • Pe 7 zile
  • Temperatura apei
  • Hartă satelitară
  • Meteo pe hartă
  • Widget-uri
  • user-avatar
    Intrare

    Meteo pe oră la Stepanakert

    Astăzi, 17 Ianuarie, Marţi

    Timp Temperatura Precipitaţii Vânt Presiune Umiditate
    00:00 0°C° 0 mm 1 m/s 696 mmHg 77%
    01:00 0°C° 0 mm 1 m/s 696 mmHg 77%
    02:00 0°C° 0 mm 1 m/s 696 mmHg 76%
    03:00 -1°C° 0 mm 1 m/s 696 mmHg 76%
    04:00 -1°C° 0 mm 1 m/s 696 mmHg 77%
    05:00 -1°C° 0 mm 1 m/s 696 mmHg 77%
    06:00 -1°C° 0 mm 1 m/s 696 mmHg 77%
    07:00 +1°C° 0 mm 1 m/s 696 mmHg 73%
    08:00 +2°C° 0 mm 1 m/s 696 mmHg 68%
    09:00 +3°C° 0 mm 1 m/s 697 mmHg 64%
    10:00 +5°C° 0 mm 1 m/s 697 mmHg 61%
    11:00 +6°C° 0 mm 1 m/s 697 mmHg 58%
    12:00 +7°C° 0 mm 1 m/s 696 mmHg 55%
    13:00 +7°C° 0 mm 1 m/s 696 mmHg 57%
    14:00 +7°C° 0 mm 1 m/s 696 mmHg 59%
    15:00 +7°C° 0 mm 1 m/s 696 mmHg 61%
    16:00 +5°C° 0 mm 1 m/s 696 mmHg 69%
    17:00 +3°C° 0 mm 1 m/s 695 mmHg 78%
    18:00 0°C° 0 mm 0 m/s 695 mmHg 86%
    19:00 +1°C° 0 mm 1 m/s 695 mmHg 86%
    20:00 +1°C° 0 mm 1 m/s 695 mmHg 86%
    21:00 +1°C° 0 mm 1 m/s 695 mmHg 86%
    22:00 0°C° 0 mm 1 m/s 695 mmHg 86%
    23:00 0°C° 0 mm 1 m/s 695 mmHg 85%

    Mâine, 18 Ianuarie, Miercuri

    Timp Temperatura Precipitaţii Vânt Presiune Umiditate
    00:00 0°C° 0 mm 1 m/s 695 mmHg 85%
    01:00 0°C° 0 mm 1 m/s 695 mmHg 85%
    02:00 0°C° 0 mm 1 m/s 695 mmHg 85%
    03:00 0°C° 0 mm 1 m/s 695 mmHg 85%
    04:00 0°C° 0 mm 1 m/s 695 mmHg 85%
    05:00 -1°C° 0 mm 1 m/s 695 mmHg 85%
    06:00 -1°C° 0 mm 1 m/s 695 mmHg 86%
    07:00 +1°C° 0 mm 1 m/s 695 mmHg 82%
    08:00 +1°C° 0 mm 0 m/s 696 mmHg 78%
    09:00 +3°C° 0 mm 0 m/s 696 mmHg 74%
    10:00 +5°C° 0 mm 1 m/s 696 mmHg 71%
    11:00 +6°C° 0 mm 1 m/s 696 mmHg 68%
    12:00 +7°C° 0 mm 1 m/s 696 mmHg 65%
    13:00 +7°C° 0 mm 1 m/s 696 mmHg 66%
    14:00 +7°C° 0 mm 1 m/s 696 mmHg 68%
    15:00 +7°C° 0 mm 1 m/s 695 mmHg 70%
    16:00 +5°C° 0 mm 1 m/s 695 mmHg 78%
    17:00 +3°C° 0 mm 1 m/s 695 mmHg 85%
    18:00 +1°C° 0 mm 1 m/s 695 mmHg 93%
    19:00 0°C° 0 mm 0 m/s 695 mmHg 93%
    20:00 0°C° 0 mm 0 m/s 695 mmHg 93%
    21:00 0°C° 0 mm 0 m/s 696 mmHg 93%
    22:00 0°C° 0 mm 0 m/s 696 mmHg 93%
    23:00 0°C° 0 mm 0 m/s 695 mmHg 93%

    Poimâine, 19 Ianuarie, Joi

    Timp Temperatura Precipitaţii Vânt Presiune Umiditate
    00:00 0°C° 0 mm 0 m/s 695 mmHg 93%
    01:00 0°C° 0 mm 0 m/s 695 mmHg 93%
    02:00 -1°C° 0 mm 0 m/s 695 mmHg 93%
    03:00 0°C° 0 mm 1 m/s 695 mmHg 93%
    04:00 0°C° 0 mm 1 m/s 695 mmHg 93%
    05:00 0°C° 0 mm 1 m/s 695 mmHg 92%
    06:00 0°C° 0 mm 1 m/s 696 mmHg 92%
    07:00 +1°C° 0 mm 1 m/s 696 mmHg 89%
    08:00 +2°C° 0 mm 1 m/s 696 mmHg 85%
    09:00 +2°C° 0 mm 0 m/s 697 mmHg 81%
    10:00 +4°C° 0 mm 1 m/s 697 mmHg 76%
    11:00 +5°C° 0 mm 1 m/s 696 mmHg 71%
    12:00 +6°C° 0 mm 1 m/s 696 mmHg 67%
    13:00 +7°C° 0 mm 1 m/s 696 mmHg 67%
    14:00 +7°C° 0 mm 1 m/s 696 mmHg 67%
    15:00 +7°C° 0 mm 1 m/s 696 mmHg 67%
    16:00 +5°C° 0 mm 1 m/s 696 mmHg 74%
    17:00 +3°C° 0 mm 1 m/s 696 mmHg 81%
    18:00 0°C° 0 mm 0 m/s 696 mmHg 88%
    19:00 0°C° 0 mm 0 m/s 696 mmHg 89%
    20:00 0°C° 0 mm 0 m/s 696 mmHg 89%
    21:00 +1°C° 0 mm 1 m/s 696 mmHg 90%
    22:00 0°C° 0 mm 0 m/s 696 mmHg 91%
    23:00 -1°C° 0 mm 0 m/s 697 mmHg 91%

    20 Ianuarie, Vineri

    Timp Temperatura Precipitaţii Vânt Presiune Umiditate
    00:00 -1°C° 0 mm 0 m/s 697 mmHg 92%
    01:00 -1°C° 0 mm 0 m/s 697 mmHg 93%
    02:00 0°C° 0 mm 1 m/s 697 mmHg 94%
    03:00 0°C° 0 mm 1 m/s 697 mmHg 95%
    04:00 -1°C° 0 mm 1 m/s 697 mmHg 96%
    05:00 -1°C° 0 mm 1 m/s 697 mmHg 96%
    06:00 -1°C° 0 mm 1 m/s 698 mmHg 97%
    07:00 0°C° 0 mm 1 m/s 698 mmHg 94%
    08:00 +1°C° 0 mm 1 m/s 699 mmHg 91%
    09:00 +2°C° 0 mm 1 m/s 699 mmHg 87%
    10:00 +2°C° 0,1 mm 2 m/s 699 mmHg 83%
    11:00 +3°C° 0,1 mm 2 m/s 699 mmHg 79%
    12:00 +3°C° 0,1 mm 2 m/s 699 mmHg 74%
    13:00 +3°C° 0,1 mm 2 m/s 699 mmHg 75%
    14:00 +3°C° 0,1 mm 2 m/s 698 mmHg 77%
    15:00 +3°C° 0,1 mm 2 m/s 698 mmHg 78%
    16:00 +2°C° 0,1 mm 2 m/s 698 mmHg 82%
    17:00 +2°C° 0,1 mm 1 m/s 698 mmHg 87%
    18:00 +1°C° 0,1 mm 1 m/s 698 mmHg 91%
    19:00 +1°C° 0,1 mm 1 m/s 698 mmHg 92%
    20:00 0°C° 0,1 mm 1 m/s 698 mmHg 93%
    21:00 0°C° 0,1 mm 1 m/s 698 mmHg 94%
    22:00 0°C° 0,1 mm 1 m/s 698 mmHg 95%
    23:00 -2°C° 0,1 mm 0 m/s 698 mmHg 95%

    21 Ianuarie, Sâmbătă

    Timp Temperatura Precipitaţii Vânt Presiune Umiditate
    00:00 -2°C° 0,1 mm 0 m/s 698 mmHg 96%
    01:00 -2°C° 0 mm 0 m/s 698 mmHg 96%
    02:00 -3°C° 0 mm 0 m/s 698 mmHg 95%
    03:00 -3°C° 0 mm 0 m/s 697 mmHg 95%
    04:00 -3°C° 0 mm 0 m/s 697 mmHg 95%
    05:00 -3°C° 0 mm 0 m/s 697 mmHg 96%
    06:00 -3°C° 0 mm 0 m/s 697 mmHg 96%
    07:00 -2°C° 0 mm 0 m/s 697 mmHg 91%
    08:00 -1°C° 0 mm 0 m/s 698 mmHg 86%
    09:00 0°C° 0 mm 0 m/s 698 mmHg 81%
    10:00 +2°C° 0 mm 1 m/s 698 mmHg 76%
    11:00 +3°C° 0 mm 1 m/s 698 mmHg 71%
    12:00 +4°C° 0 mm 1 m/s 698 mmHg 66%
    13:00 +4°C° 0 mm 1 m/s 697 mmHg 67%
    14:00 +4°C° 0 mm 1 m/s 697 mmHg 67%
    15:00 +4°C° 0 mm 1 m/s 697 mmHg 68%
    16:00 +3°C° 0 mm 1 m/s 697 mmHg 75%
    17:00 +1°C° 0 mm 1 m/s 697 mmHg 82%
    18:00 -1°C° 0 mm 0 m/s 697 mmHg 89%
    19:00 -1°C° 0 mm 0 m/s 697 mmHg 90%
    20:00 -2°C° 0 mm 0 m/s 697 mmHg 90%
    21:00 -2°C° 0 mm 0 m/s 697 mmHg 91%
    22:00 -2°C° 0 mm 0 m/s 697 mmHg 91%
    23:00 -2°C° 0 mm 0 m/s 697 mmHg 91%

    22 Ianuarie, Duminică

    Timp Temperatura Precipitaţii Vânt Presiune Umiditate
    00:00 -3°C° 0 mm 0 m/s 698 mmHg 92%
    01:00 -3°C° 0 mm 0 m/s 698 mmHg 92%
    02:00 -3°C° 0 mm 0 m/s 698 mmHg 92%
    03:00 -3°C° 0 mm 0 m/s 698 mmHg 92%
    04:00 -3°C° 0 mm 0 m/s 698 mmHg 92%
    05:00 -3°C° 0 mm 0 m/s 699 mmHg 92%
    06:00 -4°C° 0 mm 0 m/s 699 mmHg 92%
    07:00 -2°C° 0 mm 0 m/s 700 mmHg 86%
    08:00 -1°C° 0 mm 0 m/s 701 mmHg 80%
    09:00 +1°C° 0 mm 0 m/s 702 mmHg 74%
    10:00 +1°C° 0 mm 0 m/s 702 mmHg 70%
    11:00 +3°C° 0 mm 1 m/s 702 mmHg 65%
    12:00 +4°C° 0 mm 1 m/s 702 mmHg 60%
    13:00 +4°C° 0 mm 1 m/s 702 mmHg 61%
    14:00 +4°C° 0 mm 1 m/s 702 mmHg 61%
    15:00 +4°C° 0 mm 1 m/s 702 mmHg 62%
    16:00 +3°C° 0 mm 1 m/s 702 mmHg 69%
    17:00 +1°C° 0 mm 1 m/s 702 mmHg 76%
    18:00 0°C° 0 mm 1 m/s 703 mmHg 84%
    19:00 -1°C° 0,1 mm 1 m/s 703 mmHg 85%
    20:00 -1°C° 0,1 mm 1 m/s 703 mmHg 86%
    21:00 -1°C° 0,1 mm 1 m/s 703 mmHg 87%
    22:00 -1°C° 0,1 mm 1 m/s 704 mmHg 88%
    23:00 -2°C° 0,1 mm 1 m/s 704 mmHg 88%
    Arată mai mult